User: anonymous   Login
Location: Unspecified
(0.0000°N, 0.0000°E)
Time: 03:00:34
(UTC+00:00)
Language:

STARLINK-5097 - Orbit

View from above orbital plane
View from above orbital plane
View from above satellite
View from above satellite

Ground track
Ground track

The orbit is defined by the following mean orbital elements,

1 53995U          26145.53154480 +.00000000 +00000-0 +24907-4 0 00008
2 53995  53.2125 229.1256 0001250  91.7031 268.4104 15.08835050    07
Epoch (UTC): 25 May 2026 12:45:25
Eccentricity: 0.0001250
inclination: 53.2125°
perigee height: 539 km
apogee height: 541 km
right ascension of ascending node: 229.1256°
argument of perigee: 91.7031°
revolutions per day: 15.08835050
mean anomaly at epoch: 268.4104°

The dashed part of the orbit path shows where the satellite is in the earth's shadow,  

DLR